Wetbulb
59.09 59.21 59.28 59.33 59.45 59.80 60.20 60.27 60.43 60.87 59.76 59.71 61.16 61.16 61.08 61.05 60.22 54.09 46.68 53.47 55.37 62.44 59.64 49.41 47.51 46.55 46.54 44.52 43.02 38.43 35.31 32.60 34.52 35.67 37.29 39.94 39.26 39.27 40.18 41.13 40.08 41.47 42.40 43.66 51.60
58.38 58.61 58.80 58.87 59.16 59.50 59.69 59.81 60.08 59.49 58.82 59.09 59.90 61.15 60.87 60.64 53.18 49.00 58.04 62.11 62.06 60.64 49.07 46.25 43.76 45.22 43.18 42.37 41.59 37.14 33.57 36.28 38.16 36.76 39.21 39.78 39.27 41.70 39.80 38.80 39.94 39.69 40.58 45.83 48.85
58.18 58.09 58.33 58.44 58.76 59.11 59.47 59.53 59.73 59.51 59.39 59.66 60.31 61.15 60.46 57.33 47.14 46.96 60.80 61.80 62.02 57.01 50.11 48.18 46.22 43.65 40.54 42.41 41.58 36.05 34.87 38.10 39.42 40.78 41.06 40.50 38.48 40.82 39.91 37.74 41.20 41.82 42.41 46.04 45.85
58.34 57.97 57.84 57.97 58.24 58.76 59.15 59.37 59.48 59.46 59.81 60.16 60.84 60.87 59.87 51.66 36.65 50.49 59.76 60.71 61.23 52.90 49.13 46.46 43.74 40.70 38.49 39.77 40.40 38.23 37.93 38.54 41.68 42.04 40.47 39.61 40.76 39.85 39.85 41.35 41.15 42.40 43.66 45.17 45.37
57.95 58.08 57.78 57.64 57.80 58.31 58.71 58.96 59.20 59.28 59.52 59.94 60.82 60.75 52.35 44.38 45.91 53.66 58.76 57.47 51.58 48.96 46.00 43.89 41.25 39.91 37.61 39.36 39.31 38.32 37.89 40.51 41.62 40.95 41.26 41.96 40.05 40.20 40.51 41.39 40.79 41.36 44.18 44.77 45.46
57.90 57.79 57.98 57.72 57.71 58.02 58.28 58.52 58.74 58.89 59.13 59.57 60.77 59.64 49.02 38.88 52.29 52.87 51.12 50.23 49.24 47.04 44.84 45.01 42.51 42.53 40.44 38.36 37.71 39.57 39.97 39.73 40.61 40.54 40.20 39.87 40.44 41.70 42.32 39.17 39.19 40.73 41.69 43.04 44.07
57.90 57.59 57.15 57.35 57.72 57.90 57.93 58.18 58.48 58.52 58.70 59.49 60.42 54.92 46.21 43.64 51.94 49.52 50.32 48.19 48.25 47.28 45.24 45.78 44.94 42.75 40.70 38.94 41.07 39.66 37.00 37.95 37.39 39.56 39.33 41.30 38.32 39.92 40.40 39.10 40.04 39.37 39.14 40.07 41.38
58.44 57.67 57.19 57.24 56.98 57.33 57.73 57.96 58.10 58.23 58.75 59.43 60.12 48.77 40.32 50.29 51.86 49.97 48.68 47.32 48.84 48.57 47.56 47.08 46.70 44.83 41.71 40.76 39.85 36.25 35.21 33.27 36.70 39.32 39.04 38.52 33.79 40.03 39.32 39.58 40.42 38.78 38.01 38.88 40.40
58.06 57.58 57.35 57.24 56.94 56.77 57.49 57.79 57.73 58.16 59.07 59.55 49.69 45.44 39.50 53.36 49.46 50.62 47.61 46.41 46.57 46.88 47.26 49.09 45.47 40.12 39.94 36.08 33.95 33.59 30.04 30.40 35.90 39.38 37.49 36.27 34.28 38.41 37.20 37.82 38.93 38.26 38.04 38.41 38.70
58.15 57.54 57.32 57.23 56.93 56.24 57.10 57.78 57.53 57.07 55.37 53.44 51.00 39.58 42.84 42.91 47.98 48.48 47.09 47.99 45.12 43.53 43.36 43.31 39.58 36.53 33.97 34.32 29.15 30.70 29.47 31.10 31.84 36.24 35.20 34.23 35.08 38.74 39.10 37.79 38.44 37.76 37.56 37.48 38.12
58.77 57.93 57.58 57.22 56.97 56.98 54.63 47.92 41.28 40.08 46.33 39.88 40.09 38.49 43.08 46.48 48.43 46.63 47.11 45.95 44.05 42.21 36.94 37.95 35.53 33.59 35.74 35.32 34.83 33.36 31.32 31.97 33.29 37.10 35.09 35.15 35.09 38.01 39.58 36.87 37.66 37.62 37.18 38.62 39.61
57.16 58.72 58.01 57.53 57.25 57.21 52.58 43.80 41.67 44.98 39.35 45.25 44.84 45.21 46.98 47.41 43.33 45.45 47.45 42.62 39.93 36.43 37.28 35.57 33.29 37.95 38.30 36.46 35.19 33.23 31.79 31.78 34.62 36.06 35.36 35.19 35.52 38.83 38.25 37.89 39.26 40.90 39.95 40.23 40.02
56.27 57.02 58.31 57.57 56.97 54.81 50.00 48.33 51.95 48.95 38.25 40.46 45.91 45.16 45.38 46.35 43.46 44.16 45.96 41.98 38.34 36.11 36.23 34.09 37.07 39.09 38.58 35.19 34.83 33.44 32.01 31.56 33.72 34.50 34.08 32.22 31.86 34.45 38.14 37.69 38.54 39.38 42.66 42.29 41.92
54.33 55.82 57.55 57.23 53.27 52.25 49.81 52.93 53.03 48.27 33.51 36.64 39.36 44.51 44.28 45.46 40.94 45.52 45.92 43.37 37.63 37.71 36.18 35.63 38.73 38.17 35.28 34.77 36.52 31.28 36.32 35.30 33.57 31.90 28.09 31.52 26.22 31.67 36.56 38.37 38.61 41.66 40.05 41.41 42.26
53.49 54.15 55.86 56.65 52.99 50.49 52.89 54.29 53.28 45.59 29.86 39.44 39.74 46.40 43.64 40.80 40.31 41.25 43.78 41.88 37.45 37.68 37.69 35.38 36.14 35.62 34.82 36.23 37.74 34.94 36.73 34.79 33.22 30.60 27.72 27.27 27.00 31.06 33.26 35.60 39.24 42.60 41.62 41.08 41.72
53.23 53.24 53.42 55.56 54.55 54.59 56.05 56.02 51.75 37.56 30.11 35.01 40.35 39.42 39.14 39.31 38.52 40.07 40.61 42.17 40.79 37.71 36.09 35.10 37.91 38.25 38.33 37.10 37.91 38.13 35.55 33.45 31.21 30.04 25.15 29.91 29.80 29.92 32.54 36.81 37.54 41.53 42.71 41.43 39.43
52.61 52.75 50.93 50.75 51.54 56.11 56.05 49.35 34.72 30.23 39.97 35.90 36.35 38.07 37.12 35.88 36.15 36.96 36.90 35.31 34.44 31.60 31.64 33.21 34.94 36.35 38.01 35.75 36.14 35.10 33.58 26.47 23.12 21.99 24.64 28.18 27.40 35.59 36.05 39.17 38.31 40.61 41.53 39.14 38.40
51.07 51.72 49.31 51.66 56.42 56.08 51.55 40.61 29.62 33.24 36.49 38.99 37.26 36.77 35.55 36.68 35.11 35.35 34.62 33.12 36.56 33.29 29.47 30.21 27.52 35.42 37.73 38.00 35.18 33.96 33.85 26.72 19.96 19.54 23.03 27.45 26.00 32.21 37.44 38.81 39.07 38.60 39.79 37.78 37.90
50.42 45.43 47.29 50.52 54.12 55.19 46.06 33.73 34.55 35.49 39.86 38.38 38.44 35.05 33.21 35.97 35.31 33.72 32.60 32.91 36.56 35.98 32.51 29.30 29.88 34.48 35.50 36.40 39.60 32.99 31.06 34.95 29.31 15.64 21.32 27.55 29.86 35.49 36.77 37.54 37.99 38.00 37.62 38.35 37.21
42.16 42.23 43.36 51.46 54.35 51.76 42.30 37.09 37.82 40.35 39.84 39.91 35.17 37.86 32.32 33.33 34.08 32.35 32.11 35.76 36.32 38.51 38.04 35.14 29.37 32.74 34.22 36.41 35.55 34.81 36.91 29.44 27.68 19.82 15.98 24.75 26.06 30.33 35.27 37.35 38.48 37.71 38.64 39.06 36.26
39.58 37.25 43.72 50.40 53.06 45.12 36.43 37.28 38.27 40.52 42.56 38.66 36.91 35.66 35.04 33.85 34.80 31.68 33.54 34.87 36.64 36.21 41.31 37.80 34.34 29.65 33.00 32.22 32.13 32.95 31.82 30.95 31.77 27.86 21.62 18.52 28.78 33.49 37.01 38.50 37.93 39.70 39.14 38.00 37.71
36.95 31.79 43.57 51.86 38.64 39.78 35.40 38.04 40.96 38.18 41.74 41.36 40.02 39.42 36.30 35.49 34.36 32.67 33.54 35.90 38.34 38.28 35.15 37.86 35.01 27.22 30.33 32.29 32.97 31.20 31.74 32.23 26.69 23.91 25.50 25.06 31.27 35.90 37.05 38.14 37.32 38.85 38.90 37.33 36.45
32.62 33.24 41.94 47.29 31.61 33.20 36.09 37.07 39.16 39.78 39.94 39.75 39.31 39.78 39.69 38.94 35.60 35.73 34.83 38.42 39.13 39.11 37.09 38.33 34.25 24.33 28.47 30.51 30.64 30.44 32.44 34.34 32.47 29.71 27.93 22.95 31.45 34.56 33.80 35.89 36.57 37.27 38.05 37.83 36.06
34.09 27.00 33.27 39.99 39.76 35.59 34.09 34.03 34.36 40.03 40.10 42.02 40.83 40.99 37.73 38.21 40.57 36.01 35.91 37.16 39.01 39.58 42.36 42.61 36.19 32.80 30.01 30.06 31.60 28.92 30.74 33.74 35.66 29.29 31.25 30.46 35.14 35.49 35.27 36.46 37.64 38.10 38.41 37.57 37.24
35.85 29.22 30.44 29.49 28.36 30.55 35.66 36.53 33.52 32.82 39.88 41.24 39.33 39.74 38.96 36.20 36.90 36.62 36.93 36.75 37.01 39.89 40.11 41.05 33.82 34.06 36.52 34.66 31.96 31.41 30.87 32.61 33.65 34.92 29.74 34.97 34.73 39.28 40.66 40.28 41.43 40.69 38.29 37.94 36.60
33.25 28.80 30.94 28.91 30.52 32.87 32.62 28.77 32.24 35.58 36.77 35.56 37.06 38.66 39.22 36.99 37.45 34.82 37.95 36.35 36.68 36.86 38.10 39.97 33.75 35.58 32.98 35.89 34.53 32.93 31.79 33.76 33.65 35.31 35.64 36.05 35.47 42.91 43.62 39.63 37.82 38.88 40.02 39.91 37.85
38.78 38.60 35.31 30.17 27.69 26.67 27.48 31.19 31.63 33.26 35.66 38.90 38.25 37.50 38.04 39.58 42.21 43.08 42.78 42.15 41.49 39.30 35.96 37.55 34.79 32.90 31.17 34.19 33.63 30.90 33.89 35.73 35.98 37.39 36.59 32.11 37.96 42.23 41.51 41.82 42.28 42.15 39.62 39.52 39.64
MSLP
1017.56 1017.52 1017.38 1017.27 1017.31 1017.38 1017.08 1016.91 1016.99 1016.75 1016.63 1016.47 1016.15 1015.91 1015.58 1015.12 1014.47 1014.33 1014.41 1014.34 1014.18 1013.94 1013.91 1013.72 1013.50 1013.83 1014.15 1015.13 1015.71 1016.26 1017.50 1018.47 1018.13 1017.96 1016.97 1016.81 1017.06 1017.39 1017.64 1018.15 1018.64 1018.96 1019.33 1019.53 1019.62
1017.65 1017.63 1017.58 1017.57 1017.59 1017.53 1017.35 1017.42 1017.06 1016.75 1016.46 1016.42 1016.07 1015.71 1015.23 1014.91 1014.67 1014.29 1014.33 1014.00 1014.09 1013.93 1013.83 1013.98 1014.08 1014.26 1015.04 1015.53 1016.09 1016.66 1017.70 1017.51 1017.06 1016.93 1016.71 1016.76 1016.97 1017.37 1017.79 1018.27 1018.71 1019.01 1019.35 1019.81 1020.10
1017.67 1017.77 1017.67 1017.54 1017.48 1017.60 1017.69 1017.40 1017.11 1016.74 1016.50 1016.16 1015.71 1015.34 1014.98 1014.59 1014.50 1014.37 1014.19 1014.09 1013.95 1013.93 1013.95 1014.08 1014.08 1014.62 1015.39 1015.70 1016.22 1016.67 1017.01 1016.88 1016.61 1016.48 1016.50 1016.71 1017.00 1017.20 1017.68 1018.36 1018.13 1018.44 1019.07 1019.96 1020.42
1017.77 1017.76 1017.77 1017.60 1017.57 1017.56 1017.49 1017.24 1017.12 1016.90 1016.50 1016.05 1015.67 1015.01 1014.73 1014.44 1014.98 1014.52 1014.30 1014.13 1014.00 1014.04 1013.89 1014.07 1014.35 1015.05 1015.76 1015.99 1016.13 1016.52 1016.69 1016.62 1016.49 1016.42 1016.52 1016.75 1016.92 1017.21 1017.60 1017.23 1017.55 1017.97 1018.69 1019.75 1020.30
1017.83 1017.78 1017.80 1017.69 1017.62 1017.57 1017.49 1017.32 1017.23 1016.99 1016.62 1016.30 1015.58 1015.05 1014.85 1014.75 1014.86 1014.37 1014.30 1014.27 1014.12 1014.00 1014.11 1014.26 1014.66 1015.16 1015.87 1016.10 1016.19 1016.43 1016.67 1016.56 1016.52 1016.53 1016.60 1016.70 1016.97 1017.25 1017.17 1017.15 1017.68 1018.28 1018.99 1019.66 1020.13
1017.78 1017.83 1017.84 1017.87 1017.65 1017.53 1017.52 1017.39 1017.14 1016.83 1016.56 1016.20 1015.79 1015.34 1015.02 1015.06 1014.59 1014.60 1014.53 1014.34 1014.25 1014.21 1014.45 1014.45 1014.80 1015.04 1015.85 1016.29 1016.42 1016.63 1016.79 1016.82 1016.69 1016.73 1016.75 1017.01 1017.27 1017.43 1016.96 1017.32 1017.98 1018.72 1019.18 1019.66 1019.90
1017.69 1017.82 1017.83 1017.82 1017.73 1017.57 1017.46 1017.35 1017.17 1016.85 1016.58 1016.33 1016.03 1015.77 1015.35 1014.91 1014.65 1014.65 1014.54 1014.62 1014.52 1014.46 1014.68 1014.87 1014.97 1015.33 1016.07 1016.68 1016.86 1016.92 1017.23 1017.22 1017.06 1017.13 1017.16 1017.30 1017.79 1017.30 1017.14 1017.76 1018.41 1019.07 1019.41 1019.75 1019.91
1017.45 1017.64 1017.86 1017.78 1017.78 1017.54 1017.40 1017.31 1017.17 1016.93 1016.56 1016.23 1016.05 1015.91 1015.31 1014.71 1014.74 1014.58 1014.60 1014.73 1014.69 1014.67 1014.87 1015.10 1015.12 1015.83 1016.62 1017.22 1017.64 1017.81 1018.04 1018.15 1017.55 1017.57 1017.62 1017.87 1017.79 1017.13 1017.39 1018.03 1018.63 1019.19 1019.59 1019.71 1019.70
1017.25 1017.42 1017.64 1017.73 1017.81 1017.73 1017.45 1017.21 1016.98 1016.78 1016.44 1016.16 1016.12 1016.04 1015.42 1014.71 1014.94 1014.80 1014.76 1014.93 1015.09 1015.20 1015.32 1015.40 1015.83 1017.33 1017.58 1018.24 1019.01 1019.14 1018.99 1018.84 1018.15 1017.89 1018.05 1018.40 1018.29 1017.60 1017.91 1018.42 1018.77 1019.01 1019.33 1019.49 1019.44
1016.98 1017.20 1017.43 1017.56 1017.73 1017.70 1017.42 1017.04 1016.72 1016.64 1016.39 1016.28 1016.27 1016.37 1015.40 1015.23 1015.09 1015.06 1015.00 1015.09 1015.48 1015.68 1015.94 1016.52 1017.56 1018.51 1019.03 1019.13 1019.62 1019.52 1019.57 1019.27 1018.91 1018.43 1018.54 1018.75 1018.31 1017.97 1017.94 1018.51 1018.65 1018.85 1018.96 1019.16 1019.03
1016.73 1016.91 1017.17 1017.35 1017.65 1017.78 1017.53 1017.10 1017.33 1017.17 1016.72 1015.96 1015.83 1015.78 1015.47 1015.52 1015.26 1015.30 1015.26 1015.44 1015.74 1016.38 1017.19 1017.95 1018.55 1018.78 1018.48 1018.79 1018.92 1019.14 1019.42 1019.38 1018.87 1018.46 1018.78 1018.59 1018.26 1018.01 1017.58 1018.05 1018.07 1018.15 1018.20 1017.87 1017.75
1016.73 1016.70 1016.71 1017.15 1017.57 1017.82 1017.76 1017.39 1016.92 1017.14 1016.56 1015.74 1015.81 1015.74 1015.50 1015.36 1015.56 1015.55 1015.41 1015.91 1016.31 1017.18 1017.83 1018.70 1018.62 1017.76 1018.37 1018.88 1019.08 1019.35 1019.63 1019.55 1019.10 1018.87 1019.26 1018.79 1018.13 1017.27 1017.20 1016.70 1016.38 1016.46 1016.49 1016.26 1016.44
1016.56 1016.44 1016.42 1017.11 1017.56 1017.90 1017.86 1017.34 1016.86 1016.68 1016.93 1015.80 1015.51 1015.31 1015.13 1015.41 1015.29 1015.24 1015.62 1016.11 1016.72 1017.66 1018.13 1018.31 1017.88 1017.71 1018.17 1018.82 1019.30 1019.39 1019.60 1019.59 1019.73 1019.44 1019.44 1019.28 1018.25 1017.04 1015.50 1015.43 1015.31 1015.00 1014.66 1014.77 1014.77
1017.19 1016.93 1016.65 1016.77 1017.98 1017.69 1017.66 1016.94 1016.92 1016.83 1017.08 1015.81 1015.31 1014.40 1014.72 1014.91 1015.41 1015.01 1015.17 1015.68 1016.90 1017.22 1018.22 1018.40 1017.75 1017.96 1018.33 1018.63 1018.79 1019.13 1018.86 1019.29 1019.86 1020.49 1020.45 1019.80 1018.68 1016.95 1015.57 1014.93 1014.50 1013.49 1013.47 1013.12 1013.47
1017.52 1017.34 1017.11 1016.72 1017.01 1017.37 1017.14 1016.83 1017.07 1016.92 1016.92 1014.74 1014.77 1014.42 1014.63 1015.09 1015.16 1015.59 1015.50 1015.49 1016.31 1016.97 1017.81 1017.15 1017.49 1017.85 1018.10 1018.03 1018.44 1018.74 1018.94 1019.69 1020.24 1020.87 1020.94 1020.42 1020.19 1016.06 1015.23 1014.55 1013.43 1012.33 1012.00 1011.89 1012.30
1017.60 1017.41 1017.36 1016.98 1017.04 1017.06 1016.96 1016.86 1017.63 1017.74 1016.03 1014.78 1014.74 1014.72 1015.19 1015.39 1015.75 1015.99 1015.85 1015.76 1016.20 1016.94 1017.22 1017.11 1017.03 1017.12 1017.10 1017.70 1017.99 1018.75 1019.33 1020.35 1021.21 1021.60 1021.09 1019.40 1019.47 1014.92 1014.43 1013.00 1012.25 1011.42 1011.11 1011.33 1012.25
1017.62 1017.70 1017.46 1017.27 1016.76 1016.70 1017.03 1017.87 1018.82 1016.68 1015.59 1015.18 1015.21 1015.29 1015.34 1015.79 1016.29 1016.26 1016.42 1016.55 1016.52 1017.21 1017.02 1017.32 1016.93 1016.84 1016.90 1017.67 1018.29 1018.52 1019.56 1021.05 1021.91 1022.33 1020.31 1019.29 1019.20 1014.00 1012.74 1011.92 1011.42 1011.39 1010.71 1011.24 1011.86
1017.61 1017.50 1017.14 1017.04 1016.50 1016.54 1017.25 1018.37 1016.48 1016.66 1016.01 1015.45 1015.48 1015.81 1015.75 1015.86 1016.33 1016.64 1016.79 1016.93 1016.56 1016.56 1016.97 1017.03 1016.72 1016.36 1016.34 1016.30 1017.12 1018.26 1018.61 1019.90 1020.83 1021.75 1020.45 1019.54 1017.30 1013.18 1011.49 1010.94 1010.59 1010.83 1010.56 1010.99 1011.76
1017.43 1017.53 1017.25 1016.47 1016.39 1016.44 1017.15 1016.90 1015.89 1015.64 1015.07 1015.53 1016.17 1015.80 1016.18 1016.08 1016.34 1016.87 1017.07 1016.53 1015.74 1015.83 1016.18 1016.45 1016.18 1015.72 1015.87 1015.91 1016.20 1017.83 1018.31 1018.19 1019.63 1021.57 1021.27 1017.74 1014.77 1012.37 1011.07 1010.84 1010.45 1010.24 1010.60 1010.69 1011.29
1017.68 1017.56 1016.87 1015.87 1016.24 1016.53 1016.14 1015.53 1014.67 1014.12 1014.30 1014.56 1014.65 1014.94 1015.56 1015.98 1016.54 1016.77 1016.69 1015.02 1014.92 1014.57 1014.68 1015.34 1016.04 1015.96 1016.14 1016.21 1016.57 1016.56 1017.00 1018.39 1019.46 1020.63 1020.24 1016.62 1014.79 1012.35 1011.08 1010.34 1009.70 1009.88 1009.88 1010.23 1011.23
1017.68 1017.67 1016.02 1015.66 1016.24 1016.70 1015.13 1014.68 1013.85 1013.45 1013.29 1013.81 1013.72 1014.19 1014.59 1015.26 1015.44 1015.99 1015.41 1014.49 1014.20 1014.11 1014.21 1014.83 1015.71 1016.54 1016.63 1016.28 1016.18 1017.01 1017.07 1017.60 1018.19 1018.69 1018.48 1017.19 1012.42 1010.45 1009.92 1009.33 1009.47 1009.43 1009.48 1010.09 1010.76
1018.00 1017.80 1015.83 1015.60 1016.37 1015.77 1015.08 1013.78 1013.74 1013.50 1013.38 1013.11 1013.04 1013.19 1013.80 1014.37 1014.83 1015.29 1014.71 1013.61 1013.13 1013.27 1014.30 1014.04 1014.92 1015.96 1015.81 1015.84 1016.00 1015.82 1015.73 1016.20 1017.19 1018.11 1017.77 1016.48 1010.64 1009.20 1009.32 1009.18 1009.35 1009.19 1009.57 1010.01 1010.70
1018.05 1017.52 1015.68 1015.87 1015.47 1015.21 1014.38 1013.92 1014.00 1013.49 1013.10 1013.13 1012.77 1012.58 1012.81 1013.37 1014.10 1013.67 1013.28 1012.59 1012.85 1013.03 1012.85 1013.47 1014.40 1015.78 1015.95 1016.37 1016.19 1015.87 1015.59 1015.39 1015.85 1016.42 1015.22 1015.10 1009.39 1009.12 1009.03 1008.98 1009.16 1009.69 1009.71 1009.93 1010.62
1018.12 1017.60 1016.79 1016.11 1015.25 1015.11 1014.76 1013.84 1013.78 1013.01 1013.35 1012.94 1012.79 1012.98 1012.54 1012.25 1012.47 1012.79 1012.54 1012.36 1012.25 1012.38 1012.52 1012.51 1013.73 1014.55 1014.18 1014.04 1014.43 1014.98 1014.32 1014.41 1014.74 1015.16 1011.80 1012.40 1007.80 1008.59 1008.44 1008.66 1008.95 1009.33 1009.25 1009.74 1009.97
1017.48 1017.21 1016.34 1016.23 1015.69 1015.38 1015.17 1014.29 1013.73 1013.23 1012.82 1012.55 1012.72 1012.69 1012.58 1012.26 1012.35 1012.06 1012.03 1012.16 1012.36 1012.22 1012.48 1012.73 1013.04 1013.74 1013.20 1013.74 1013.86 1013.77 1013.73 1013.92 1013.71 1011.40 1012.56 1008.72 1009.78 1005.21 1007.76 1007.98 1008.42 1008.48 1008.76 1009.21 1009.47
1016.44 1016.98 1016.51 1016.16 1015.76 1015.62 1015.22 1014.41 1014.15 1013.51 1013.06 1012.42 1012.40 1011.76 1011.98 1012.04 1011.88 1011.76 1012.09 1012.08 1011.88 1012.30 1012.29 1012.38 1013.21 1013.75 1013.15 1013.01 1013.32 1013.54 1013.39 1012.64 1011.48 1011.04 1011.42 1008.86 1008.14 1004.25 1006.53 1007.15 1007.54 1007.98 1008.47 1008.56 1008.68
1015.69 1016.10 1016.51 1016.08 1015.98 1016.03 1014.81 1014.24 1013.65 1013.72 1013.07 1012.97 1012.88 1012.37 1011.53 1011.18 1011.05 1011.05 1011.66 1011.44 1010.93 1011.14 1011.62 1012.05 1012.53 1013.16 1012.04 1011.57 1012.66 1012.23 1010.82 1010.31 1010.72 1009.80 1009.57 1009.08 1004.97 1005.44 1005.72 1006.39 1006.32 1007.11 1007.47 1007.70 1007.84
Wind_Speed
5 4 4 4 4 4 6 7 8 9 10 11 12 12 12 15 9 1 1 1 3 7 5 4 4 5 4 4 4 3 6 3 7 7 4 4 4 0 1 6 1 2 4 2 6
3 3 3 4 4 6 7 7 8 8 8 10 12 13 13 11 1 3 2 3 4 6 4 3 3 4 4 3 4 6 5 9 5 5 3 4 3 7 4 3 3 3 1 3 6
2 2 3 4 5 6 7 8 10 11 10 11 13 14 13 3 2 1 4 3 3 4 3 1 3 3 4 3 3 3 4 5 3 2 3 5 2 5 7 4 8 10 6 8 5
0 1 2 4 5 6 8 10 11 12 13 14 15 15 10 1 2 3 5 4 3 1 2 3 5 4 3 3 1 4 1 2 1 0 3 4 5 4 6 7 1 8 7 8 10
3 1 2 3 4 6 8 9 10 12 13 15 15 17 2 4 1 4 4 4 2 2 3 3 3 4 5 3 2 3 0 1 1 2 1 2 3 6 7 6 3 5 8 11 9
5 4 2 3 4 6 7 8 9 11 13 14 15 14 2 1 2 5 3 2 3 3 3 4 4 4 5 2 3 2 1 2 2 2 1 1 1 1 5 3 2 6 11 10 11
7 6 5 4 4 6 7 9 11 10 11 12 13 4 3 5 1 3 3 1 2 2 3 2 2 4 3 3 1 3 1 4 2 2 2 4 7 11 4 2 5 7 8 8 10
7 7 7 6 5 6 7 9 10 12 11 10 10 2 4 1 2 1 2 3 4 5 4 4 5 6 4 3 7 4 6 3 2 4 2 4 9 10 2 6 10 8 8 9 10
8 8 7 6 7 6 8 9 10 10 12 7 3 3 6 2 1 1 1 4 2 4 6 4 7 4 5 5 5 7 2 3 8 6 3 4 6 4 1 4 9 9 9 9 9
8 8 8 6 6 8 9 10 7 6 3 1 2 4 0 1 1 1 2 4 5 3 5 8 7 4 4 4 6 5 3 4 5 2 2 4 11 11 7 5 11 9 9 10 11
8 9 9 6 5 6 6 2 4 3 2 7 3 1 1 1 1 2 1 4 3 8 4 3 4 8 12 6 2 5 3 4 4 3 3 7 10 11 9 6 11 10 11 14 16
9 8 9 8 6 2 1 1 2 2 5 4 2 4 3 4 3 3 3 5 3 5 5 5 7 9 5 4 3 3 3 6 5 3 2 8 15 14 7 10 10 15 14 17 11
12 11 6 8 6 1 1 4 2 0 0 7 5 5 6 7 6 9 9 4 4 6 7 8 4 4 8 5 5 5 6 5 6 4 4 5 10 9 8 5 6 11 15 12 18
12 10 5 10 4 4 4 3 4 2 2 7 6 7 4 8 5 1 6 7 2 11 7 6 3 4 4 5 8 5 8 5 3 2 5 1 9 7 7 9 9 16 13 20 18
11 12 5 13 4 2 1 2 3 1 5 4 3 1 3 7 4 2 2 3 10 9 8 9 8 5 5 7 7 7 4 6 3 3 3 1 2 6 2 8 14 15 15 15 14
9 10 12 3 1 1 3 4 4 5 12 3 3 4 6 2 3 3 2 4 4 5 2 5 1 7 8 3 4 9 6 6 4 2 7 12 10 8 7 10 6 11 14 11 7
9 8 7 4 1 6 3 4 5 5 5 3 4 4 3 5 2 3 6 5 7 6 9 1 5 3 3 6 3 3 6 3 5 1 11 3 4 18 6 10 9 14 14 7 6
8 8 4 4 1 9 2 3 6 5 6 2 3 2 6 6 4 4 7 6 7 2 3 9 8 12 7 10 10 9 9 9 8 5 7 3 10 11 11 9 10 7 12 6 7
8 3 3 4 6 5 5 9 8 5 6 9 1 4 4 2 4 4 6 5 9 11 10 6 8 1 3 2 9 7 8 3 2 2 3 6 9 10 8 12 10 13 8 11 8
1 2 4 4 7 5 8 15 9 9 8 4 13 13 11 7 6 7 9 6 7 13 3 5 4 2 0 2 2 5 7 4 2 4 5 8 8 9 7 10 12 10 12 9 5
2 2 4 5 7 4 12 8 9 5 10 8 8 6 7 9 8 7 8 5 6 6 18 6 5 1 3 8 11 4 4 1 4 6 6 4 11 9 11 12 10 10 8 6 6
2 3 3 8 7 4 13 12 7 4 4 10 5 12 11 8 8 8 15 11 7 10 13 9 5 6 10 2 3 1 5 7 6 5 4 3 19 5 8 8 6 10 7 3 4
3 3 3 5 8 11 8 15 15 3 10 5 8 11 7 13 11 12 9 6 10 10 13 10 5 2 8 2 3 6 6 7 5 4 14 7 19 1 1 6 5 8 8 5 5
2 2 3 3 3 7 14 20 14 9 19 7 5 10 4 11 11 7 9 6 10 11 7 8 6 11 16 5 5 6 8 13 14 4 20 16 34 10 2 4 7 9 10 9 8
4 5 5 3 10 10 6 5 17 16 13 17 20 16 10 11 12 18 8 2 3 3 6 9 9 9 22 7 3 5 5 10 17 29 12 31 21 30 15 14 15 11 8 10 9
5 4 2 2 2 4 8 20 18 14 5 16 20 17 21 19 13 8 19 6 7 5 10 5 6 10 21 17 9 9 8 15 24 23 17 31 29 29 20 7 8 11 13 14 10
2 2 2 3 4 4 9 7 8 9 17 18 16 15 17 20 20 18 12 10 10 10 10 11 9 7 16 14 7 13 27 25 21 24 21 23 37 18 21 17 19 16 11 13 14
Wind_Direction
117 89 75 65 38 26 28 20 10 15 9 356 347 339 334 333 312 141 46 319 319 329 324 312 44 18 47 70 51 113 65 167 195 153 227 164 147 96 85 119 215 218 159 292 135
102 96 76 53 28 10 10 3 3 11 5 351 339 334 336 337 336 67 333 350 338 346 52 52 50 19 40 47 28 79 109 209 186 193 196 189 164 172 151 138 244 285 182 89 133
99 40 38 34 18 5 356 358 355 354 353 348 337 330 332 327 62 342 347 356 23 24 84 97 84 62 61 33 12 153 164 189 214 213 181 176 206 179 135 232 219 205 182 159 165
149 66 19 18 7 360 356 356 352 347 349 346 338 334 328 10 175 345 345 351 348 301 92 75 51 64 75 100 5 88 101 178 160 58 126 167 127 205 190 217 337 219 160 165 176
238 258 331 353 355 351 353 353 348 345 346 343 341 335 329 47 279 345 339 341 328 353 68 105 92 120 138 130 80 77 260 28 357 45 104 142 220 225 242 236 24 121 157 183 191
230 238 245 314 335 340 340 340 340 343 341 342 341 329 63 114 341 340 326 339 38 40 29 50 153 156 110 94 106 147 123 336 339 327 326 212 284 25 274 126 143 170 200 199 201
232 244 252 273 313 328 329 330 328 333 333 333 338 352 58 220 13 320 15 19 2 51 92 36 71 66 100 103 182 93 49 336 234 254 248 153 298 239 204 132 216 224 226 222 223
233 241 259 264 272 307 319 320 321 322 320 322 330 355 244 327 264 62 9 27 32 26 72 21 70 95 58 119 19 52 50 32 256 147 313 126 265 273 237 169 236 233 232 232 235
223 228 245 266 279 293 308 309 308 312 307 307 35 47 275 345 99 17 47 121 58 36 39 53 61 79 34 78 13 9 231 210 315 197 134 167 262 275 58 205 249 237 234 237 253
226 222 227 241 272 286 298 295 292 319 319 300 63 33 233 222 84 74 18 84 97 73 34 44 50 68 39 95 217 208 226 258 253 207 175 230 255 274 265 204 247 251 248 245 245
241 221 217 222 247 291 337 5 17 327 17 196 197 192 161 313 0 37 144 81 79 58 140 13 98 212 204 193 128 135 180 231 245 261 209 236 261 257 263 228 253 245 238 240 233
19 246 205 204 218 261 19 223 136 161 321 226 219 276 238 179 108 254 135 126 122 152 118 41 232 221 139 154 156 146 196 255 284 247 198 279 269 262 232 234 213 231 234 237 237
15 6 208 190 168 115 271 244 12 133 323 290 194 189 201 146 214 203 143 137 127 126 188 167 217 119 147 149 167 214 189 219 226 335 254 323 281 258 262 247 251 245 239 241 229
18 360 305 145 135 153 244 270 245 319 23 263 229 254 140 148 254 183 184 140 157 189 155 229 250 154 165 190 163 237 208 170 200 62 248 97 285 283 258 255 231 250 229 237 236
11 15 313 168 147 187 295 310 198 27 259 219 176 112 149 176 144 303 304 47 163 171 137 235 174 169 180 204 154 226 126 156 136 177 321 146 289 246 336 270 257 251 248 240 236
359 1 355 220 191 142 121 77 7 138 224 198 120 159 124 33 41 78 125 43 149 120 272 233 171 169 193 125 157 148 82 56 52 93 275 184 168 257 194 212 252 256 256 257 249
339 329 333 311 224 146 125 50 133 225 345 188 198 176 151 153 116 124 153 179 163 143 218 115 214 176 148 93 49 122 96 319 334 4 240 58 165 250 296 264 222 249 262 265 227
328 314 286 241 285 153 158 107 197 181 253 43 105 56 182 159 188 150 136 188 251 120 120 183 276 163 188 185 168 199 161 168 212 206 269 102 235 249 239 267 261 266 258 252 219
333 324 275 236 195 195 171 224 212 196 175 160 232 60 255 213 138 140 203 223 197 178 183 169 268 196 147 159 150 196 205 193 59 73 15 232 282 295 264 272 270 248 276 258 224
20 309 248 210 160 231 215 233 225 175 150 190 190 181 192 198 170 178 173 208 211 185 176 214 280 38 115 134 26 167 165 85 345 193 249 270 267 230 277 255 254 265 246 268 232
48 315 264 171 150 213 238 222 239 233 181 173 213 214 198 180 184 199 206 259 212 190 192 155 165 252 139 209 170 140 209 141 134 156 180 290 264 215 217 233 254 263 260 256 243
114 231 306 156 181 197 226 227 159 177 196 236 216 222 202 177 191 207 215 216 162 145 171 210 160 212 212 226 233 256 226 153 139 226 243 175 266 146 231 255 244 265 284 287 250
181 234 301 200 212 218 226 244 241 222 193 211 237 220 189 208 225 204 206 200 170 163 171 171 190 343 319 343 343 209 199 207 107 79 228 141 259 79 59 306 315 284 295 300 254
149 265 275 182 296 239 227 243 251 211 239 226 213 241 235 228 217 243 239 195 188 200 174 157 151 195 227 199 141 196 193 193 196 186 246 230 262 250 341 297 288 281 266 255 242
178 224 216 207 240 240 254 303 241 245 220 209 236 227 229 238 233 241 237 136 179 211 189 174 200 205 244 238 210 201 178 187 204 228 211 255 246 260 253 248 245 243 257 248 248
196 170 292 245 312 225 242 246 251 258 260 236 234 230 216 234 236 230 234 196 205 181 174 198 225 215 253 250 230 250 211 214 217 237 239 254 258 258 264 258 226 235 251 257 263
161 137 93 216 215 221 234 243 259 259 260 242 271 276 245 233 239 248 270 277 222 196 184 174 171 187 241 237 237 250 238 248 250 245 231 243 252 268 266 258 254 246 242 246 244